Weather History for NW Arkansas Airport, AR

Change the Weather History Date:

Friday, March 22, 2013

  Actual Average Record
Temperature  
Mean Temperature 36 °F -  
Max Temperature 39 °F - - ()
Min Temperature 32 °F - - ()
Degree Days  
Heating Degree Days 30    
Moisture  
Dew Point 32 °F    
Average Humidity 86    
Maximum Humidity 100    
Minimum Humidity 73    
Precipitation  
Precipitation 0.29 in - - ()
Sea Level Pressure  
Sea Level Pressure 29.87 in    
Wind  
Wind Speed 9 mph (ENE)    
Max Wind Speed 13 mph    
Max Gust Speed 21 mph    
Visibility 8 miles    
Events Rain    
T = Trace of Precipitation, MM = Missing Value Source: NWS Daily Summary

Daily Weather History Graph

Daily Weather History Graph

Search for Another Location

Airport:

Trip Planner

Search our weather history database for the weather conditions in past years. The results will help you decide how hot, cold, wet, or windy it might be!

Date:

Astronomy

Mar. 22, 2013 Rise Set
Actual Time 7:17 AM CDT 7:30 PM CDT
Civil Twilight 6:51 AM CDT 7:56 PM CDT
Nautical Twilight 6:21 AM CDT 8:26 PM CDT
Astronomical Twilight 5:51 AM CDT 8:57 PM CDT
Moon 3:05 PM CDT (3/22) 4:10 AM CDT (3/22)
Length of Visible Light 13h 04m
Length of Day
12h 13m
Waxing Gibbous, 77% of the Moon is Illuminated
Mar 22
Waxing Gibbous
Mar 27
Full
Apr 2
Last Quarter
Apr 10
New
Apr 18
First Quarter

Hourly Weather History & Observations

Time (CDT) Temp. Windchill Dew Point Humidity Pressure Visibility Wind Dir Wind Speed Gust Speed Precip Events Conditions
12:53 AM 33.1 °F 23.9 °F 33.1 °F 100% 29.82 in 9.0 mi East 12.7 mph 20.7 mph 0.03 in Rain Light Rain
1:53 AM 32.0 °F 23.6 °F 32.0 °F 100% 29.84 in 8.0 mi East 10.4 mph - 0.05 in   Overcast
2:33 AM 32.0 °F 23.6 °F 32.0 °F 100% 29.83 in 3.0 mi East 10.4 mph - 0.07 in   Overcast
2:51 AM 32.0 °F 23.6 °F 32.0 °F 100% 29.83 in 3.0 mi East 10.4 mph - 0.13 in   Overcast
2:53 AM 32.0 °F 23.6 °F 32.0 °F 100% 29.85 in 3.0 mi ENE 10.4 mph - 0.13 in   Overcast
3:34 AM 32.0 °F 24.2 °F 32.0 °F 100% 29.83 in 5.0 mi East 9.2 mph - 0.07 in   Overcast
3:53 AM 32.0 °F 24.2 °F 32.0 °F 100% 29.84 in 8.0 mi East 9.2 mph - 0.08 in   Overcast
4:30 AM 33.8 °F 27.0 °F 32.0 °F 93% 29.81 in 10.0 mi East 8.1 mph - 0.00 in   Overcast
4:42 AM 33.8 °F 27.7 °F 32.0 °F 93% 29.81 in 10.0 mi ENE 6.9 mph - 0.00 in Rain Light Rain
4:53 AM 33.1 °F 27.7 °F 32.0 °F 96% 29.84 in 10.0 mi East 5.8 mph - 0.00 in   Overcast
5:53 AM 33.1 °F 27.7 °F 33.1 °F 100% 29.87 in 10.0 mi ENE 5.8 mph - N/A   Overcast
6:53 AM 34.0 °F 28.8 °F 33.1 °F 96% 29.88 in 10.0 mi ENE 5.8 mph - N/A   Overcast
7:53 AM 35.1 °F 30.1 °F 33.1 °F 92% 29.88 in 10.0 mi ENE 5.8 mph - N/A   Overcast
8:53 AM 36.0 °F 30.3 °F 33.1 °F 89% 29.89 in 10.0 mi East 6.9 mph - N/A   Overcast
9:32 AM 37.4 °F 32.1 °F 32.0 °F 81% 29.88 in 10.0 mi East 6.9 mph - N/A   Overcast
9:53 AM 37.0 °F 31.6 °F 32.0 °F 82% 29.89 in 10.0 mi East 6.9 mph - N/A   Overcast
10:12 AM 37.4 °F 31.4 °F 32.0 °F 81% 29.87 in 10.0 mi East 8.1 mph - N/A   Overcast
10:26 AM 37.4 °F 32.1 °F 32.0 °F 81% 29.87 in 10.0 mi East 6.9 mph - N/A   Overcast
10:44 AM 37.4 °F 32.1 °F 32.0 °F 81% 29.87 in 10.0 mi East 6.9 mph - N/A   Overcast
10:53 AM 37.9 °F 32.1 °F 32.0 °F 79% 29.89 in 10.0 mi East 8.1 mph - N/A   Overcast
11:53 AM 39.0 °F 34.8 °F 32.0 °F 76% 29.88 in 10.0 mi East 5.8 mph - N/A   Overcast
12:53 PM 39.9 °F 35.8 °F 32.0 °F 73% 29.89 in 10.0 mi ENE 5.8 mph - N/A   Overcast
1:53 PM 39.9 °F 35.1 °F 32.0 °F 73% 29.89 in 10.0 mi NNE 6.9 mph - N/A   Overcast
2:53 PM 39.9 °F 34.5 °F 32.0 °F 73% 29.88 in 10.0 mi NE 8.1 mph - N/A   Overcast
3:53 PM 39.9 °F 35.1 °F 32.0 °F 73% 29.88 in 6.0 mi NE 6.9 mph - N/A   Haze
4:53 PM 39.0 °F 32.8 °F 32.0 °F 76% 29.88 in 6.0 mi NE 9.2 mph - N/A   Haze
5:53 PM 37.9 °F 33.5 °F 32.0 °F 79% 29.89 in 9.0 mi ENE 5.8 mph - N/A   Overcast
6:53 PM 37.9 °F 34.4 °F 30.9 °F 76% 29.90 in 8.0 mi ENE 4.6 mph - N/A   Overcast
7:51 PM 37.4 °F 31.4 °F 32.0 °F 81% 29.88 in 10.0 mi NE 8.1 mph - N/A   Overcast
7:53 PM 37.9 °F 32.1 °F 32.0 °F 79% 29.90 in 10.0 mi NE 8.1 mph - N/A   Overcast
8:34 PM 37.4 °F 31.4 °F 32.0 °F 81% 29.88 in 10.0 mi ENE 8.1 mph - N/A   Overcast
8:53 PM 37.0 °F 29.3 °F 32.0 °F 82% 29.89 in 9.0 mi ENE 11.5 mph - N/A   Overcast
9:53 PM 37.0 °F 31.0 °F 32.0 °F 82% 29.91 in 8.0 mi ENE 8.1 mph - N/A   Overcast
10:53 PM 36.0 °F 30.3 °F 32.0 °F 86% 29.94 in 7.0 mi ENE 6.9 mph - N/A   Overcast
11:53 PM 36.0 °F 28.5 °F 30.9 °F 82% 29.91 in 6.0 mi ENE 10.4 mph - N/A   Haze